WetterOnline ( http://www.wetteronline.de )

Wetter aktuell Bad Salzuflen

Aktuelles Wetter: Bad Salzuflen (139m)

6-stündlich | Neueste Meldungen
Ortszeit Temperatur Wetter
Mo, 28.05. 2:00 16.8° C bedeckt
So, 27.05. 20:00 17.7° C Regen
So, 27.05. 14:00 26.1° C leicht bewölkt
So, 27.05. 8:00 17.4° C wolkenlos
So, 27.05. 2:00 18.0° C bewölkt
Sa, 26.05. 20:00 24.1° C wolkenlos
Sa, 26.05. 14:00 26.6° C leicht bewölkt
Sa, 26.05. 8:00 18.0° C leicht bewölkt
Ortszeit Temperatur Wetter
Mo, 28.05. 5:00 15.1° C wolkig
Mo, 28.05. 4:50 15.1° C wolkig
Mo, 28.05. 4:40 15.2° C wolkig
Mo, 28.05. 4:30 15.7° C leicht bewölkt
Mo, 28.05. 4:20 15.7° C leicht bewölkt
Mo, 28.05. 4:10 16.2° C bedeckt
Mo, 28.05. 4:00 16.1° C bewölkt
Mo, 28.05. 3:30 16.8° C bedeckt
Mo, 28.05. 3:00 17.0° C bewölkt
Mo, 28.05. 2:30 16.7° C bedeckt
Mo, 28.05. 2:00 16.8° C bedeckt
Ortszeit Relative Feuchte Sichtweite
Mo, 28.05. 2:00 87% 11 km
So, 27.05. 20:00 85% 24 km
So, 27.05. 14:00 45% 27 km
So, 27.05. 8:00 72% 35 km
So, 27.05. 2:00 64% 45 km
Sa, 26.05. 20:00 43% 35 km
Sa, 26.05. 14:00 35% 26 km
Sa, 26.05. 8:00 69% 35 km
Ortszeit Relative Feuchte Sichtweite
Mo, 28.05. 5:00 93% 7 km
Mo, 28.05. 4:50 93% -
Mo, 28.05. 4:40 93% -
Mo, 28.05. 4:30 88% 9 km
Mo, 28.05. 4:20 88% -
Mo, 28.05. 4:10 87% -
Mo, 28.05. 4:00 90% 9 km
Mo, 28.05. 3:30 86% 14 km
Mo, 28.05. 3:00 87% 12 km
Mo, 28.05. 2:30 85% 17 km
Mo, 28.05. 2:00 87% 11 km
Ortszeit Niederschlagsmenge Niederschlagsart
Mo, 28.05. 2:00 0.1 l/m2 in 6 Std. Regen
So, 27.05. 20:00 0.6 l/m2 in 12 Std. Regen
So, 27.05. 14:00 0.0 l/m2 in 6 Std. -
So, 27.05. 8:00 0.0 l/m2 in 12 Std. -
So, 27.05. 2:00 0.0 l/m2 in 6 Std. -
Sa, 26.05. 20:00 0.0 l/m2 in 12 Std. -
Sa, 26.05. 14:00 0.0 l/m2 in 6 Std. -
Sa, 26.05. 8:00 0.0 l/m2 in 12 Std. -
Ortszeit Niederschlagsmenge Niederschlagsart
Mo, 28.05. 5:00 0.0 l/m2 in 1 Std. -
Mo, 28.05. 4:50 keine Meldung -
Mo, 28.05. 4:40 keine Meldung -
Mo, 28.05. 4:30 0.0 l/m2 in 1 Std. -
Mo, 28.05. 4:20 keine Meldung -
Mo, 28.05. 4:10 keine Meldung -
Mo, 28.05. 4:00 0.0 l/m2 in 1 Std. -
Mo, 28.05. 3:30 0.0 l/m2 in 1 Std. -
Mo, 28.05. 3:00 0.0 l/m2 in 1 Std. -
Mo, 28.05. 2:30 0.0 l/m2 in 1 Std. -
Mo, 28.05. 2:00 0.0 l/m2 in 1 Std. Regen
Ortszeit Stärke Spitze Richtung
km/h Bft. km/h Grad Sektor
Mo, 28.05. 2:00 0 0 11 - -
So, 27.05. 20:00 6 1 33 10° N
So, 27.05. 14:00 9 2 22 120° SO
So, 27.05. 8:00 7 2 14 40° NO
So, 27.05. 2:00 6 1 19 20° N
Sa, 26.05. 20:00 4 1 22 20° N
Sa, 26.05. 14:00 9 2 20 80° O
Sa, 26.05. 8:00 4 1 11 40° NO
Ortszeit Stärke Spitze Richtung
km/h Bft. km/h Grad Sektor
Mo, 28.05. 5:00 4 1 7 220° SW
Mo, 28.05. 4:50 4 1 - 220° SW
Mo, 28.05. 4:40 4 1 - 160° S
Mo, 28.05. 4:30 4 1 7 270° W
Mo, 28.05. 4:20 4 1 - 270° W
Mo, 28.05. 4:10 4 1 - 330° NW
Mo, 28.05. 4:00 4 1 7 30° NO
Mo, 28.05. 3:30 6 1 7 20° N
Mo, 28.05. 3:00 4 1 7 330° NW
Mo, 28.05. 2:30 4 1 4 240° SW
Mo, 28.05. 2:00 0 0 11 - -
Ortszeit Untergrenze Bedeckung Gattung
total tief tief mittel hoch
Mo, 28.05. 2:00 3000 m 8/8 8/8 - - -
So, 27.05. 20:00 1500 m 8/8 2/8 - - -
So, 27.05. 14:00 8700 m 6/8 0/8 - - -
So, 27.05. 8:00 - 0/8 0/8 - - -
So, 27.05. 2:00 2400 m 7/8 7/8 - - -
Sa, 26.05. 20:00 - 0/8 0/8 - - -
Sa, 26.05. 14:00 2100 m 3/8 3/8 - - -
Sa, 26.05. 8:00 9000 m 7/8 0/8 - - -
Ortszeit Bedeckungsgrad in Achtel und Wolkenuntergrenze
Mo, 28.05. 5:00 2(9000m) 8(9000m) 8(10500m)
Mo, 28.05. 4:50 2(9000m) 8(9000m) 8(10500m)
Mo, 28.05. 4:40 4(9000m) 7(10500m)
Mo, 28.05. 4:30 2(3600m) 5(10500m) 7(10500m)
Mo, 28.05. 4:20 2(3600m) 5(10500m)
Mo, 28.05. 4:10 9 9 9
Mo, 28.05. 4:00 4(3300m) 7(6000m) 7(8100m)
Mo, 28.05. 3:30 1(3000m) 8(3300m) 8(7800m)
Mo, 28.05. 3:00 6(2700m) 8(3600m)
Mo, 28.05. 2:30 8(3000m) 8(3600m)
Mo, 28.05. 2:00 7(3000m) 8(3600m)
Ortszeit Luftdruck NN (hPa) Tendenz (hPa in 3 Std.)
Mo, 28.05. 2:00 1018 - 0,2
So, 27.05. 20:00 1018 - 0,1
So, 27.05. 14:00 1019 - 1,3
So, 27.05. 8:00 1020 + 0,1
So, 27.05. 2:00 1022 + 0,1
Sa, 26.05. 20:00 1021 - 0,2
Sa, 26.05. 14:00 1021 - 0,1
Sa, 26.05. 8:00 1021 + 0,8
Ortszeit Luftdruck NN (hPa) Tendenz (hPa in 3 Std.)
Mo, 28.05. 5:00 1018 - 0,3
Mo, 28.05. 4:50 1018 keine Meldung
Mo, 28.05. 4:40 1018 keine Meldung
Mo, 28.05. 4:30 1018 - 0,3
Mo, 28.05. 4:20 1018 keine Meldung
Mo, 28.05. 4:10 1018 keine Meldung
Mo, 28.05. 4:00 1018 - 0,7
Mo, 28.05. 3:30 1018 - 0,8
Mo, 28.05. 3:00 1018 - 0,4
Mo, 28.05. 2:30 1019 0,0
Mo, 28.05. 2:00 1018 - 0,2
Ortszeit Schneehöhe (cm)
Mo, 28.05. 2:00 -
So, 27.05. 20:00 -
So, 27.05. 14:00 -
So, 27.05. 8:00 -
So, 27.05. 2:00 -
Sa, 26.05. 20:00 -
Sa, 26.05. 14:00 -
Sa, 26.05. 8:00 -
Ortszeit Schneehöhe (cm)
Mo, 28.05. 5:00 -
Mo, 28.05. 4:50 -
Mo, 28.05. 4:40 -
Mo, 28.05. 4:30 -
Mo, 28.05. 4:20 -
Mo, 28.05. 4:10 -
Mo, 28.05. 4:00 -
Mo, 28.05. 3:30 -
Mo, 28.05. 3:00 -
Mo, 28.05. 2:30 -
Mo, 28.05. 2:00 -
Link zu dieser Seite / Seite empfehlen

Das Wetter in ...